DW4277 Weather Reports


time (UTC)temp
F
wind
direction
speed
knots
gust
knots
rain 1hr
in
rain 24hr
in
rain mn
in
humidity
%
barometer
mb
20260901210112 69 348 0.0 0.0 0.00 0.21 0.11 58 1019.4
20260901204515 69 348 0.0 0.0 0.00 0.23 0.11 57 1019.2
20260901203016 70 348 0.0 0.0 0.00 0.23 0.11 55 1019.2
20260901201529 70 348 0.0 0.0 0.00 0.23 0.11 54 1019.1
20260901200010 71 348 0.0 0.0 0.00 0.23 0.11 53 1019.2
20260901194510 72 348 0.0 0.0 0.00 0.23 0.11 51 1019.0
20260901193009 73 348 0.0 0.0 0.00 0.23 0.11 47 1018.9
20260901191512 74 348 0.0 0.0 0.00 0.23 0.11 46 1018.9
20260901190011 74 348 0.0 0.0 0.00 0.23 0.11 46 1018.8
20260901184508 75 348 0.0 0.0 0.00 0.23 0.11 46 1018.7
20260901183007 75 348 0.0 0.0 0.00 0.23 0.11 44 1018.5
20260901181509 76 348 0.0 0.0 0.00 0.23 0.11 44 1018.4
20260901180007 76 348 0.0 0.0 0.00 0.23 0.11 42 1018.2
20260901174509 77 348 0.0 11.3 0.00 0.23 0.11 41 1017.9
20260901173005 78 348 5.2 13.0 0.00 0.23 0.11 41 1017.7
20260901171505 79 348 2.6 18.2 0.00 0.23 0.11 39 1017.7
20260901170009 79 333 8.7 15.6 0.00 0.23 0.11 39 1017.7
20260901164504 80 334 9.6 20.9 0.00 0.23 0.11 39 1017.6
20260901163003 80 317 13.9 26.1 0.00 0.23 0.11 40 1017.5
20260901161502 80 333 17.4 28.7 0.00 0.23 0.11 39 1017.6
20260901160004 80 317 10.4 27.8 0.00 0.23 0.11 39 1017.6
20260901154501 81 346 15.6 28.7 0.00 0.23 0.11 39 1017.7
20260901153002 81 310 18.2 32.2 0.00 0.23 0.11 38 1017.7
20260901151600 81 348 10.4 22.6 0.00 0.23 0.11 39 1017.6
20260901150104 81 341 13.9 29.5 0.00 0.23 0.11 40 1017.7
20260901144559 82 321 4.3 24.3 0.00 0.23 0.11 40 1017.7
20260901143158 82 327 15.6 29.5 0.00 0.23 0.11 38 1017.7
20260901141559 81 344 4.3 28.7 0.00 0.23 0.11 40 1017.8
20260901140055 81 323 14.8 31.3 0.00 0.23 0.11 40 1017.9
20260901134611 81 13 13.0 22.6 0.00 0.23 0.11 40 1017.9
20260901133051 81 336 15.6 26.9 0.00 0.23 0.11 41 1018.0
20260901131550 80 351 10.4 26.1 0.00 0.23 0.11 43 1018.2
20260901130057 80 354 14.8 27.8 0.00 0.23 0.11 42 1018.4
20260901124558 80 312 13.0 28.7 0.00 0.23 0.11 44 1018.4
20260901123048 80 316 17.4 33.0 0.00 0.23 0.11 43 1018.4
20260901121645 79 290 12.2 29.5 0.00 0.23 0.11 46 1018.6
20260901120055 77 330 20.0 30.4 0.00 0.23 0.11 48 1018.7
20260901114542 77 349 15.6 29.5 0.00 0.23 0.11 48 1018.8
20260901113104 77 278 11.3 24.3 0.00 0.23 0.11 51 1018.9
20260901111536 76 326 10.4 29.5 0.00 0.23 0.11 51 1018.8
20260901110040 76 344 6.1 27.8 0.00 0.23 0.11 51 1018.9
20260901104534 75 312 11.3 29.5 0.00 0.23 0.11 52 1019.0
20260901103033 75 329 15.6 27.8 0.00 0.23 0.11 53 1019.1
20260901101544 75 338 13.9 26.9 0.00 0.23 0.11 54 1019.2
20260901100027 74 350 13.0 22.6 0.00 0.23 0.11 55 1019.2
20260901094527 74 315 13.0 26.9 0.00 0.23 0.11 55 1019.2
20260901093025 74 340 13.0 31.3 0.00 0.23 0.11 54 1019.2
20260901091522 74 332 7.0 33.0 0.00 0.23 0.11 56 1019.2
20260901090020 74 327 13.9 24.3 0.00 0.23 0.11 57 1019.4
20260901084528 73 31 13.0 26.9 0.00 0.23 0.11 58 1019.4
20260901083014 73 354 12.2 31.3 0.00 0.23 0.11 58 1019.2
20260901081510 72 331 17.4 34.8 0.00 0.23 0.11 59 1019.3
20260901080007 72 334 17.4 31.3 0.00 0.23 0.11 60 1019.2
20260901074504 71 333 13.9 26.1 0.00 0.23 0.11 62 1019.3
20260901073104 71 4 13.0 26.9 0.00 0.23 0.11 64 1019.2
20260901071558 70 321 8.7 21.7 0.00 0.23 0.11 66 1019.0
20260901070100 70 341 8.7 21.7 0.01 0.23 0.11 66 1019.0
20260901064547 69 325 13.9 22.6 0.01 0.23 0.11 67 1018.9
20260901063047 68 14 16.5 26.1 0.01 0.23 0.11 68 1018.9
20260901061539 67 352 10.4 18.2 0.01 0.23 0.11 70 1018.8
20260901060035 67 333 0.0 16.5 0.00 0.22 0.10 72 1018.7
20260901054530 66 333 4.3 15.6 0.00 0.22 0.10 72 1018.6
20260901053031 66 333 8.7 14.8 0.00 0.22 0.10 73 1018.5
20260901051521 65 337 0.0 7.8 0.00 0.22 0.10 75 1018.4
20260901050017 64 338 0.9 18.2 0.00 0.22 0.10 76 1018.3
20260901044515 64 330 0.0 0.0 0.00 0.22 0.10 78 1018.1
20260901043018 64 330 0.0 0.0 0.00 0.22 0.10 77 1018.0
20260901041510 65 330 0.0 0.0 0.00 0.22 0.10 77 1017.8
20260901040010 65 330 2.6 16.5 0.00 0.22 0.10 76 1017.7
20260901034509 65 328 12.2 20.0 0.00 0.22 0.10 78 1017.6
20260901033007 64 328 7.0 15.6 0.00 0.22 0.10 80 1017.5
20260901031507 64 331 2.6 21.7 0.00 0.22 0.10 81 1017.4
20260901030014 64 328 11.3 20.9 0.00 0.22 0.10 82 1017.2
20260901024506 64 331 13.0 28.7 0.00 0.22 0.10 83 1017.2
20260901023002 63 331 0.9 18.2 0.00 0.22 0.10 86 1017.2
20260901021502 63 325 8.7 18.2 0.00 0.22 0.10 88 1017.0
20260901020113 63 329 11.3 20.0 0.00 0.22 0.10 90 1016.9
20260901014559 62 317 10.4 15.6 0.00 0.22 0.10 91 1016.9
20260901013105 62 240 0.0 0.0 0.00 0.22 0.10 91 1016.9
20260901011556 63 240 0.0 0.0 0.00 0.22 0.10 91 1016.9
20260901010052 63 240 0.0 0.0 0.00 0.22 0.10 90 1016.9
20260901004551 63 240 0.0 0.0 0.00 0.22 0.10 90 1016.8
20260901003053 63 240 0.0 0.0 0.00 0.22 0.10 90 1016.9
20260901001603 63 240 1.7 13.9 0.00 0.22 0.10 90 1016.9
20260901000050 63 240 0.0 10.4 0.00 0.22 0.10 89 1016.9
20260831234557 64 244 0.0 0.0 0.00 0.22 0.10 89 1016.8
20260831233047 64 244 1.7 9.6 0.00 0.22 0.10 89 1017.0
20260831231541 64 244 0.0 0.9 0.03 0.22 0.10 89 1017.2
20260831230036 65 246 0.9 9.6 0.08 0.22 0.10 88 1017.4
20260831224535 65 244 0.0 12.2 0.13 0.22 0.10 88 1017.5
20260831223033 65 240 0.9 13.0 0.17 0.22 0.10 87 1017.7
20260831221528 66 259 1.7 17.4 0.14 0.18 0.06 85 1018.3
20260831220024 67 281 6.1 14.8 0.10 0.13 0.01 84 1018.5
20260831214521 68 279 1.7 15.6 0.07 0.09 0.09 82 1018.5
20260831213029 69 276 9.6 20.9 0.04 0.05 0.05 79 1018.3
20260831211514 71 246 0.9 7.8 0.04 0.04 0.04 74 1017.6